Flag for U.S.A. Weather past 2 weeks in Coeur d'Alene, Idaho, U.S.A.

Now
54 °F

Passing clouds.


Feels Like: 54 °F
Forecast: 51 / 74 °F
Wind: No wind

Location: Coeur d'Alene Weather Reporting System

Current Time: Jul 25, 2014 at 2:45:27 AM

Latest Report: Jul 25, 2014 at 1:55 AM


Visibility: 10 mi

Pressure: 30.07 "Hg

Humidity: 58%

Dew point: 39 °F

Location of Coeur d'AleneLocation

Historic Weather in Coeur d'Alene — Graph

°F

Coeur d'Alene temperature yesterday

Maximum temperature yesterday: 66 °F (at 6:35 PM)
Minimum temperature yesterday: 52 °F (at 4:35 AM)
Average temperature yesterday: 59 °F

Past Weeks' High & Low Weather Summary

 TemperatureHumidityPressure
High97 °F (Jul 13, 2:55 PM)94% (Jul 24, 1:55 AM)30.16 "Hg (Jul 24, 1:55 AM)
Low52 °F (Jul 24, 4:35 AM)10% (Jul 10, 9:35 AM)29.74 "Hg (Jul 17, 7:55 PM)
Average72 °F51%29.96 "Hg
* Reported Jul 10 1:15 AM — Jul 25 1:35 AM, Coeur d'Alene, Weather by CustomWeather, © 2014

Note: Actual official high and low records may vary slightly from our data, if they occured in-between our weather recording intervals... More about our weather records

Advertising

Coeur d'Alene weather history for previous 24 hours

 ConditionsComfort  
Time TempWeatherWind HumidityBarometerVisibility
1:35 AM
Jul 25
55 °FClear.No wind72%30.07 "Hg10 mi
1:15 AM57 °FPassing clouds.3 mph67%30.06 "Hg10 mi
12:55 AM55 °FPassing clouds.5 mph67%30.07 "Hg10 mi
12:35 AM57 °FClear.6 mph67%30.07 "Hg10 mi
12:15 AM61 °FPassing clouds.5 mph59%30.06 "Hg10 mi
11:55 PM
Jul 24
61 °FOvercast.8 mph63%30.07 "Hg10 mi
11:35 PM63 °FOvercast.8 mph56%30.07 "Hg10 mi
11:15 PM63 °FOvercast.7 mph59%30.07 "Hg10 mi
10:55 PM63 °FOvercast.9 mph56%30.07 "Hg10 mi
10:35 PM63 °FOvercast.6 mph56%30.07 "Hg10 mi
10:15 PM63 °FOvercast.8 mph59%30.07 "Hg10 mi
9:55 PM63 °FOvercast.7 mph56%30.07 "Hg10 mi
9:35 PM63 °FPassing clouds.7 mph52%30.07 "Hg10 mi
9:15 PM61 °FScattered clouds.8 mph55%30.07 "Hg10 mi
8:55 PM63 °FPartly sunny.7 mph52%30.07 "Hg10 mi
8:35 PM63 °FPartly sunny.7 mph52%30.07 "Hg10 mi
8:15 PM63 °FPassing clouds.7 mph52%30.06 "Hg10 mi
7:55 PM63 °FPassing clouds.7 mph52%30.07 "Hg10 mi
7:35 PM63 °FPassing clouds.6 mph52%30.07 "Hg10 mi
7:15 PM64 °FPartly sunny.7 mph49%30.06 "Hg10 mi
6:55 PM66 °FOvercast.No wind49%30.06 "Hg10 mi
6:35 PM66 °FMore clouds than sun.8 mph46%30.08 "Hg10 mi
6:15 PM64 °FPartly sunny.8 mph46%30.09 "Hg10 mi
5:55 PM63 °FPartly sunny.9 mph52%30.09 "Hg10 mi
5:35 PM63 °FOvercast.13 mph52%30.09 "Hg10 mi
5:15 PM63 °FOvercast.No wind52%30.08 "Hg10 mi
4:55 PM63 °FOvercast.6 mph49%30.10 "Hg10 mi
4:35 PM63 °FOvercast.10 mph49%30.11 "Hg10 mi
4:15 PM63 °FOvercast.13 mph49%30.12 "Hg10 mi
3:55 PM63 °FOvercast.13 mph49%30.12 "Hg10 mi
3:35 PM61 °FOvercast.8 mph55%30.12 "Hg10 mi
3:15 PM61 °FMore clouds than sun.9 mph55%30.11 "Hg10 mi
2:55 PM61 °FCloudy.15 mph52%30.12 "Hg10 mi
2:35 PM63 °FMostly cloudy.20 mph49%30.12 "Hg10 mi
1:55 PM63 °FMostly cloudy.13 mph49%30.12 "Hg10 mi
1:35 PM61 °FMostly cloudy.20 mph52%30.11 "Hg10 mi
1:15 PM63 °FMostly cloudy.12 mph49%30.11 "Hg10 mi
12:55 PM64 °FMostly cloudy.10 mph49%30.11 "Hg10 mi
12:35 PM63 °FMore clouds than sun.18 mph52%30.12 "Hg10 mi
12:15 PM61 °FCloudy.16 mph55%30.12 "Hg10 mi
11:55 AM61 °FCloudy.10 mph55%30.12 "Hg10 mi
11:35 AM61 °FMostly cloudy.No wind55%30.11 "Hg10 mi
10:55 AM59 °FMore clouds than sun.3 mph59%30.12 "Hg10 mi
10:35 AM57 °FMostly cloudy.No wind63%30.11 "Hg10 mi
10:15 AM57 °FMostly cloudy.No wind63%30.12 "Hg10 mi
9:55 AM57 °FMostly cloudy.3 mph67%30.12 "Hg10 mi
9:35 AM55 °FCloudy.5 mph67%30.12 "Hg10 mi
9:15 AM57 °FPartly sunny.No wind67%30.10 "Hg10 mi
8:55 AM55 °FMore clouds than sun.No wind67%30.11 "Hg10 mi
8:35 AM55 °FMore clouds than sun.3 mph67%30.11 "Hg10 mi
8:15 AM54 °FMostly cloudy.No wind67%30.15 "Hg10 mi
7:55 AM54 °FMostly cloudy.3 mph72%30.15 "Hg10 mi
7:35 AM54 °FCloudy.No wind72%30.13 "Hg10 mi
7:15 AM54 °FPartly sunny.No wind72%30.12 "Hg10 mi
6:55 AM52 °FPartly sunny.No wind77%30.10 "Hg10 mi
6:35 AM52 °FOvercast.No wind77%30.12 "Hg10 mi
5:55 AM52 °FMostly cloudy.No wind77%30.10 "Hg10 mi
5:35 AM52 °FOvercast.No wind77%30.08 "Hg10 mi
5:15 AM54 °FOvercast.No wind72%30.07 "Hg10 mi
4:55 AM54 °FPassing clouds.No wind72%30.07 "Hg10 mi
4:35 AM52 °FPassing clouds.No wind77%30.08 "Hg10 mi
4:15 AM54 °FOvercast.No wind77%30.06 "Hg10 mi
3:55 AM54 °FOvercast.No wind77%30.06 "Hg10 mi
3:35 AM54 °FOvercast.No wind77%30.05 "Hg10 mi
3:15 AM54 °FOvercast.No wind77%30.04 "Hg10 mi
2:55 AM54 °FPassing clouds.8 mph77%30.06 "Hg10 mi
2:35 AM54 °FPassing clouds.3 mph77%30.06 "Hg10 mi
2:15 AM54 °FPassing clouds.No wind77%30.05 "Hg10 mi
Weather by CustomWeather, © 2014

See weather overviewHow to use our weather pages